Le nostre stazioni meteo in Italia

Pubblicità
Il mio iltempo24.it
Decimomannu, Italia (16546): Temperatura & dewpoint: 19.05.2019 08:00:00 - 25.05.2019 08:00:00 (CEST)Decimomannu, Italia (16546): velocità del vento: 19.05.2019 08:00:00 - 25.05.2019 08:00:00 (CEST)Decimomannu, Italia (16546): direzione del vento: 19.05.2019 08:00:00 - 25.05.2019 08:00:00 (CEST)Decimomannu, Italia (16546): reduced air pressure: 19.05.2019 08:00:00 - 25.05.2019 08:00:00 (CEST)Decimomannu, Italia (16546): visibility: 19.05.2019 08:00:00 - 25.05.2019 08:00:00 (CEST)
Data & Tempo tt [°C] td [°C] ff [km/h] ff [kn] dd ppp [hPa] vv [km]
25.05.2019 08:00:00 - - - - - - -
25.05.2019 07:00:00 13,0 12,0 5 3 N - 10
25.05.2019 06:00:00 13,0 12,0 8 4 NO - 10
25.05.2019 05:00:00 12,8 11,7 5 3 NO 1011,7 12
25.05.2019 04:00:00 13,0 12,0 4 2 NNO - 10
25.05.2019 03:00:00 14,0 12,0 11 6 N - 10
25.05.2019 02:00:00 14,8 13,4 4 2 NNE 1012,2 15
25.05.2019 01:00:00 16,0 14,0 8 4 NO - 10
25.05.2019 00:00:00 16,0 15,0 8 4 NNE - 10
24.05.2019 23:00:00 17,4 16,1 9 5 NE 1012,8 15
24.05.2019 22:00:00 18,0 16,0 8 4 E - 10
24.05.2019 21:00:00 19,0 16,0 11 6 SE - 10
24.05.2019 20:00:00 21,2 16,0 15 8 SSE 1011,8 30
24.05.2019 19:00:00 23,0 16,0 22 12 SSE - 10
24.05.2019 18:00:00 25,0 16,0 24 13 SSE - 10
24.05.2019 17:00:00 25,8 17,5 21 11 SE 1011,9 30
24.05.2019 16:00:00 26,0 18,0 24 13 SE - 10
24.05.2019 15:00:00 26,0 18,0 22 12 SSE - 10
24.05.2019 14:00:00 27,0 15,4 26 14 SSE 1013,1 30
24.05.2019 13:00:00 28,0 13,0 9 5 ESE - 10
24.05.2019 12:00:00 26,0 18,0 5 3 NE - 10
24.05.2019 11:00:00 23,4 15,5 4 2 S 1014,3 30
24.05.2019 10:00:00 21,0 15,0 4 2 O - 10
24.05.2019 09:00:00 17,0 14,0 4 2 OSO - 10
24.05.2019 08:00:00 15,0 13,0 4 2 NO 1015,1 25
24.05.2019 07:00:00 13,0 11,0 5 3 ONO - 10
24.05.2019 06:00:00 12,0 11,0 8 4 NNO - 10
24.05.2019 05:00:00 12,2 10,8 4 2 ONO 1015,3 15
24.05.2019 04:00:00 13,0 12,0 8 4 NO - 10
24.05.2019 03:00:00 14,0 13,0 8 4 ONO - 10
24.05.2019 02:00:00 15,0 13,7 9 5 NNO 1016,1 20
24.05.2019 01:00:00 16,0 15,0 11 6 NO - 10
24.05.2019 00:00:00 16,0 15,0 9 5 NNO - 10
23.05.2019 23:00:00 17,0 16,2 9 5 N 1016,9 16
23.05.2019 22:00:00 19,0 17,0 11 6 NNO - 10
23.05.2019 21:00:00 20,0 18,0 9 5 NNO - 10
23.05.2019 20:00:00 23,4 17,6 22 12 NNO 1015,7 25
23.05.2019 19:00:00 25,0 15,0 26 14 NNO - 10
23.05.2019 18:00:00 25,0 14,0 26 14 NNO - 10
23.05.2019 17:00:00 26,0 12,1 26 14 NNO 1015,7 20
23.05.2019 16:00:00 26,0 12,0 26 14 NO - 10
23.05.2019 15:00:00 26,0 13,0 24 13 NNO - 10
23.05.2019 14:00:00 25,4 13,3 22 12 NNO 1017,0 15
23.05.2019 13:00:00 25,0 14,0 22 12 NNO - 10
23.05.2019 12:00:00 24,0 14,0 24 13 NO - 10
23.05.2019 11:00:00 23,0 14,6 28 15 NO 1017,8 15
23.05.2019 10:00:00 21,0 16,0 16 9 NNO - 10
23.05.2019 09:00:00 17,0 15,0 8 4 NO - 10
23.05.2019 08:00:00 14,8 13,2 5 3 N 1017,7 6
23.05.2019 07:00:00 12,0 10,0 9 5 NO - 10
23.05.2019 06:00:00 12,0 10,0 8 4 NNO - 10
23.05.2019 05:00:00 12,0 10,3 4 2 NO 1018,0 20
23.05.2019 04:00:00 13,0 11,0 5 3 NO - 10
23.05.2019 03:00:00 15,0 14,0 5 3 NNE - 10
23.05.2019 02:00:00 15,2 13,9 4 2 N 1017,9 15
23.05.2019 01:00:00 15,0 14,0 4 2 NNO - 10
23.05.2019 00:00:00 16,0 14,0 11 6 ONO - 10
22.05.2019 23:00:00 16,6 15,0 9 5 N 1018,4 20
22.05.2019 22:00:00 18,0 17,0 11 6 N - 10
22.05.2019 21:00:00 20,0 17,0 11 6 N - 10
22.05.2019 20:00:00 20,8 14,2 13 7 NO 1016,4 20
22.05.2019 19:00:00 23,0 13,0 22 12 NNO - 10
22.05.2019 18:00:00 24,0 10,0 29 16 NNO - 10
22.05.2019 17:00:00 24,4 9,2 34 18 NNO 1015,6 25
22.05.2019 16:00:00 25,0 10,0 26 14 NNO - 10
22.05.2019 15:00:00 26,0 10,0 26 14 NO - 10
22.05.2019 14:00:00 25,2 9,9 22 12 NNO 1016,2 25
22.05.2019 13:00:00 25,0 11,0 18 10 NNO - 10
22.05.2019 12:00:00 24,0 11,0 15 8 NNO - 10
22.05.2019 11:00:00 22,4 9,5 16 9 NO 1016,9 25
22.05.2019 10:00:00 22,0 14,0 5 3 ONO - 10
22.05.2019 09:00:00 17,0 13,0 4 2 ONO - 10
22.05.2019 08:00:00 12,8 10,9 5 3 NNO 1017,0 20
22.05.2019 07:00:00 10,0 9,0 5 3 NNO - 10
22.05.2019 06:00:00 9,0 8,0 8 4 NNO - 10
22.05.2019 05:00:00 11,0 9,7 5 3 NNO 1016,3 15
22.05.2019 04:00:00 12,0 11,0 8 4 NNO - 10
22.05.2019 03:00:00 12,0 11,0 8 4 N - 10
22.05.2019 02:00:00 12,6 11,5 5 3 NO 1017,2 10
22.05.2019 01:00:00 13,0 12,0 5 3 ONO - 10
22.05.2019 00:00:00 15,0 14,0 9 5 NNO - 10
21.05.2019 23:00:00 15,8 15,0 9 5 NNO 1016,9 15
21.05.2019 22:00:00 17,0 16,0 5 3 ENE - 10
21.05.2019 21:00:00 18,0 15,0 11 6 N - 10
21.05.2019 20:00:00 20,8 14,0 22 12 NNO 1014,8 20
21.05.2019 19:00:00 23,0 14,0 26 14 NNO - 10
21.05.2019 18:00:00 23,0 14,0 26 14 NNO - 10
21.05.2019 17:00:00 24,2 11,2 26 14 NNO 1014,6 20
21.05.2019 16:00:00 24,0 11,0 24 13 NNO - 10
21.05.2019 15:00:00 24,0 12,0 18 10 NNO - 10
21.05.2019 14:00:00 25,2 9,9 15 8 NNO 1014,7 15
21.05.2019 13:00:00 25,0 17,0 8 4 OSO - 10
21.05.2019 12:00:00 23,0 15,0 11 6 SSO - 10
21.05.2019 11:00:00 22,2 16,5 13 7 SO 1015,1 15
21.05.2019 10:00:00 21,0 18,0 5 3 S - 10
21.05.2019 09:00:00 17,0 15,0 5 3 O - 10
21.05.2019 08:00:00 14,0 12,4 4 2 E 1014,7 10
21.05.2019 07:00:00 10,0 9,0 2 1 N - 10
21.05.2019 06:00:00 10,0 9,0 4 2 E - 10
21.05.2019 05:00:00 11,2 10,0 4 2 NNO 1014,1 10
21.05.2019 04:00:00 12,0 11,0 4 2 ESE - 10
21.05.2019 03:00:00 12,0 11,0 4 2 ESE - 10
21.05.2019 02:00:00 12,0 11,1 5 3 E 1014,5 10
21.05.2019 01:00:00 13,0 12,0 5 3 NE - 10
21.05.2019 00:00:00 15,0 14,0 9 5 NO - 10
20.05.2019 23:00:00 15,0 14,2 8 4 O 1014,5 20
20.05.2019 22:00:00 16,0 15,0 4 2 SO - 10
20.05.2019 21:00:00 17,0 15,0 13 7 NO - 10
20.05.2019 20:00:00 18,4 15,7 21 11 OSO 1013,1 25
20.05.2019 19:00:00 20,0 16,0 28 15 OSO - 10
20.05.2019 18:00:00 21,0 15,0 26 14 O - 10
20.05.2019 17:00:00 20,2 13,2 22 12 ONO 1012,6 20
20.05.2019 16:00:00 20,0 13,0 28 15 ONO - 10
20.05.2019 15:00:00 21,0 13,0 29 16 ONO - 10
20.05.2019 14:00:00 20,0 13,7 29 16 O 1011,8 20
20.05.2019 13:00:00 - - - - - - -
20.05.2019 12:00:00 17,0 15,0 15 8 O - 10
20.05.2019 11:00:00 17,8 15,4 18 10 O 1011,7 15
20.05.2019 10:00:00 16,0 13,0 9 5 O - 10
20.05.2019 09:00:00 15,0 13,0 2 1 NNE - 10
20.05.2019 08:00:00 13,2 11,4 4 2 SSE 1010,5 15
20.05.2019 07:00:00 13,0 11,0 8 4 N - 10
20.05.2019 06:00:00 13,0 11,0 11 6 SO - 10
20.05.2019 05:00:00 12,4 10,8 2 1 E 1009,1 12
20.05.2019 04:00:00 12,0 10,0 4 2 SO - 10
20.05.2019 03:00:00 13,0 11,0 16 9 OSO - 10
20.05.2019 02:00:00 12,4 10,5 4 2 S 1009,7 14
20.05.2019 01:00:00 13,0 11,0 5 3 NNO - 10
20.05.2019 00:00:00 14,0 12,0 2 1 E - 10
19.05.2019 23:00:00 14,6 13,0 4 2 ENE 1009,8 14
19.05.2019 22:00:00 16,0 14,0 15 8 OSO - 10
19.05.2019 21:00:00 16,0 15,0 16 9 OSO - 10
19.05.2019 20:00:00 19,0 14,3 21 11 OSO 1007,9 25
19.05.2019 19:00:00 20,0 13,0 28 15 OSO - 10
19.05.2019 18:00:00 21,0 12,0 31 17 OSO - 10
19.05.2019 17:00:00 22,0 12,3 26 14 OSO 1007,6 25
19.05.2019 16:00:00 22,0 13,0 21 11 O - 10
19.05.2019 15:00:00 21,0 11,0 15 8 ONO - 10
19.05.2019 14:00:00 21,0 10,5 18 10 O 1007,4 25
19.05.2019 13:00:00 22,0 11,0 22 12 O - 10
19.05.2019 12:00:00 17,0 14,0 22 12 NO - 10
19.05.2019 11:00:00 19,0 12,3 22 12 O 1008,0 20
19.05.2019 10:00:00 17,0 13,0 11 6 ONO - 10
19.05.2019 09:00:00 16,0 13,0 9 5 O - 10
19.05.2019 08:00:00 13,0 11,2 4 2 NNO 1007,9 12

tt = Temperatura
td = dewpoint
ff = velocità del vento
dd = direzione del vento
ppp = reduced air pressure
vv = visibility

Stazioni seguenti

WeatherPro
AMSI
MeteoEarth